Regional Weather Roundup
Issued by NWS Upton, NY

Current Version | Previous Version | Text Only | Print | Product List | Glossary On
Versions: 1 2 3 4 5 6 7 8 9 10 11 12 13 14 15 16 17 18 19 20 21 22 23 24 25 26 27 28 29 30 31 32 33 34 35 36 37 38 39 40 41 42 43 44 45 46 47 48 49 50
000 ASUS41 KOKX 240418 RWROKX REGIONAL WEATHER ROUNDUP NATIONAL WEATHER SERVICE NEW YORK NY 1200 AM EDT SUN MAY 24 2015 NOTE: "FAIR" INDICATES FEW OR NO CLOUDS BELOW 12,000 FEET WITH NO SIGNIFICANT WEATHER AND/OR OBSTRUCTIONS TO VISIBILITY. NYZ071-072-176-178-NJZ106-104-240500- NEW YORK CITY METRO AREA CITY SKY/WX TMP DP RH WIND PRES REMARKS CENTRAL PARK CLEAR 58 41 53 VRB3 30.38S LAGUARDIA APRT PTCLDY 59 44 57 S13 30.35S KENNEDY INTL PTCLDY 56 50 80 SW9 30.37S NEWARK/LIBERTY CLEAR 55 44 66 SW7 30.36S BRNX BOT. GARD N/A 55 45 67 CALM 30.38R TETERBORO CLEAR 55 43 63 SW6 30.34S $$ NYZ177-179-078>081-240500- LONG ISLAND NEW YORK CITY SKY/WX TMP DP RH WIND PRES REMARKS FARMINGDALE CLEAR 54 48 80 SW7 30.37S ISLIP CLEAR 52 46 80 SW5 30.35F SHIRLEY CLEAR 54 46 74 SW8 30.37S WESTHAMPTON CLEAR 52 46 80 SW7 30.38S MONTAUK POINT N/A 54 44 69 SW9G18 30.37R $$ NYZ052-065-067-240500- HUDSON VALLEY CITY SKY/WX TMP DP RH WIND PRES REMARKS WHITE PLAINS CLEAR 51 45 79 CALM 30.34S NEWBURGH NOT AVBL MONTGOMERY CLEAR 47 38 71 S3 30.33R POUGHKEEPSIE CLEAR 46 37 71 CALM 30.32R ALBANY CLEAR 46 34 62 S6 30.29S $$ NJZ001-105-106-008-010-013-015-019>022-104-240500- NEW JERSEY CITY SKY/WX TMP DP RH WIND PRES REMARKS NEWARK/LIBERTY CLEAR 55 44 66 SW7 30.36S TETERBORO CLEAR 55 43 63 SW6 30.34S CALDWELL CLEAR 52 34 50 CALM 30.36S MORRISTOWN CLEAR 46 36 66 CALM 30.36S SOMERVILLE CLEAR 45 37 73 CALM 30.35S SUSSEX CLEAR 44 37 76 SW5 30.36S ANDOVER N/A 45 41 86 CALM 30.36R TRENTON CLEAR 56 34 43 W5 30.36S MILLVILLE CLEAR 53 49 86 CALM 30.39F ATLANTIC CITY CLEAR 53 47 79 SW7 30.40S WRIGHTSTOWN CLEAR 49 40 72 S1 30.36S TOMS RIVER CLEAR N/A N/A N/A SW6 30.39S BELMAR CLEAR 52 41 66 SW7 30.38S $$ PAZ047>061-062-071-240500- EASTERN PENNSYLVANIA CITY SKY/WX TMP DP RH WIND PRES REMARKS PHILADELPHIA PTCLDY 58 46 64 S8 30.39S ALLENTOWN CLEAR 49 34 56 NW3 30.36S SCRANTON CLEAR 49 33 54 E5 30.34S $$ CTZ002-004>006-009-010-012-RIZ004-006-007-MAZ004-011-015-240500- SOUTHERN NEW ENGLAND IN CT CITY SKY/WX TMP DP RH WIND PRES REMARKS BRADLEY INTL CLEAR 52 35 52 S8 30.31R HARTFORD CLEAR 52 40 63 S6 30.33R DANBURY CLEAR 47 37 68 SE3 30.35S WTRBRY/OXFORD CLEAR 48 36 61 SW3 30.36R BRIDGEPORT CLEAR 55 47 74 SW8 30.35S MERIDEN CLEAR 50 40 68 CALM 30.34S NEW HAVEN CLEAR 53 47 79 SW6 30.35S CHESTER FAIR 48 45 87 SW6 30.35S GROTON CLEAR 52 42 69 W7 30.35R WILLIMANTIC CLEAR 50 39 66 VRB3 30.33R IN RI CITY SKY/WX TMP DP RH WIND PRES REMARKS PROVIDENCE CLEAR 52 38 58 SW10 30.33R BLOCK ISLAND CLEAR 52 43 71 SW14 30.36R WESTERLY CLEAR 52 44 74 SW9 30.36R IN MA CITY SKY/WX TMP DP RH WIND PRES REMARKS BOSTON CLEAR 54 31 41 SW15 30.29S WORCESTER CLEAR 47 29 49 SW7 30.29S WESTFIELD CLEAR 44 35 70 S6 30.30S PROVINCETOWN CLEAR 52 41 66 SW15 30.31S NANTUCKET CLEAR 51 46 83 SW12 30.36R $$ ANZ330-335-338-340-345-350-353-355-240500- COASTAL MARINE OBSERVATIONS STATION/POSITION TIME SKY/WX TEMP WIND PRES VSBY WAVE AIR SEA DIR/SP/G HT/PER (UTC) (F) (DEG/KT/KT) (MB) (MI) (FT/S) NY HARB ENTRANCE 0350 56 55 200/ 14/ 16 1027.8 3/ 4 4S FIRE IS 0303 54 N/A 4/ 4 20S FIRE ISLAND 0350 55 55 220/ 16/ 19 1028.3 3/ 5 GREAT SOUTH BAY 0330 56 63 250/ 14/ 17 N/A 23SW MTP 0350 54 52 220/ 14/ 17 1028.1 3/ 4 HUDSON CANYON NOT AVBL KINGS POINT 0300 57 56 200/ 8/ 9 1027.4 CENTRAL LI SOUND 0300 54 52 210/ 16/ 19 N/A EASTERN LI SOUND 0300 53 250/ 10/ 14 N/A ROBBINS REEF 0300 58 210/ 11/ 13 1026.8 $$ >>>>>>>>>>>>>>>>>>>>>>>>>>>> KEY <<<<<<<<<<<<<<<<<<<<<<<<<<< > < > SKY/WX - SKY CONDITION/PRESENT WEATHER < > TMP - TEMPERATURE IN FAHRENHEIT < > DP - DEWPOINT IN FAHRENHEIT < > RH - RELATIVE HUMIDITY IN PERCENT < > WIND - DIRECTION AND SPEED IN MPH < > PRES - MEAN SEA LEVEL PRESSURE IN INCHES OF HG < > WCI - WIND CHILL INDEX < > VSB - VISIBILITY IN MILES < > HX - HEAT INDEX < > TC - TEMPERATURE IN CELSIUS < > VRB - VARIABLE WIND DIRECTION < > < >>>>>>>>>>>>>>>>>>>>>>>>>>>> KEY <<<<<<<<<<<<<<<<<<<<<<<<<<<

USA.gov is the U.S. government's official web portal to all federal, state and local government web resources and services.